Location: Limoges
(45.8500°N, 1.2500°E)
Time: 03:26:35
(UTC+02:00)

ISS - Pass Details

Date: 28 September 2021
Orbit: 417 x 423 km, 51.6° (Epoch: 21 October)

Event Time Altitude Azimuth Distance (km) Brightness Sun altitude
Rises 22:35:22 0° 297° (WNW) 2,368 1.3 -30.0°
Reaches altitude 10° 22:37:28 10° 295° (WNW) 1,502 -0.1 -30.3°
Enters shadow 22:38:02 14° 294° (WNW) 1,273 -0.5 -30.4°
